Location: Roland
(31.1349°N, 85.4372°W)
Time: 22:20:23
(UTC+00:00)

Tiros 1 - Pass Details

Date: 27 April 2021
Orbit: 630 x 664 km, 48.4° (Epoch: 13 May)

Event Time Altitude Azimuth Distance (km) Brightness Sun altitude
Rises 19:21:21 0° 303° (WNW) 2,915 10.7 61.1°
Reaches altitude 10° 19:23:46 10° 296° (WNW) 2,003 10.1 60.6°
Maximum altitude 19:28:05 41° 226° (SW) 907 9.6 59.8°
Drops below altitude 10° 19:32:24 10° 156° (SSE) 1,996 9.8 59.0°
Sets 19:34:48 0° 149° (SSE) 2,903 10.5 58.5°
